Miscellaneous Local Product
Issued by NWS North Platte, NE

Home | Current Version | Previous Version | Text Only | Print | Product List | Glossary On
Versions: 1 2 3 4 5 6 7 8 9 10 11 12 13 14 15 16 17 18 19 20 21 22 23 24 25 26 27 28 29 30 31 32 33 34 35 36 37 38 39 40 41 42 43 44 45 46 47 48 49 50
000
AXUS43 KLBF 250210
MISLBF


WESTERN AND NORTH CENTRAL NEBRASKA HOURLY WEATHER ROUNDUP
NATIONAL WEATHER SERVICE NORTH PLATTE NE
900 PM CDT FRI APR 24 2015

***STATIONS NOT REPORTING VARIABLES SUCH AS SKY/WEATHER OR
PRESSURE ARE PROVIDED BY THE NEBRASKA DEPARTMENT OF
ROADS...RAWS...AND APRS NETWORKS...AND ARE NOT UNDER
NATIONAL WEATHER SERVICE QUALITY CONTROL***

...OBSERVATIONS IN AND NEAR THE EASTERN PANHANDLE OF NEBRASKA...

CITY           SKY/WX    TMP DP  RH WIND       PRES   REMARKS
PINE RIDGE     CLOUDY    53  45  74 NE14      29.58R
CHADRON        CLOUDY    53  44  71 E6        29.58R
ALLIANCE       CLOUDY    53  45  74 NW9       29.60R
SIDNEY         CLOUDY    55  37  50 NW20      29.60S
$$

...OBSERVATIONS IN NORTH CENTRAL NEBRASKA...

CITY           SKY/WX    TMP DP  RH WIND       PRES   REMARKS
VALENTINE      LGT RAIN  64  44  48 NW12      29.51R
THEDFORD       CLOUDY    57  48  72 SE9       29.50R
AINSWORTH      CLOUDY    61  43  52 S9        29.49R THUNDER
O`NEILL        CLOUDY    63  46  54 S13       29.50R
ORD            MOCLDY    62  54  74 SE6       29.52R
BROKEN BOW     MOCLDY    60  53  77 E6        29.51R
$$

...OBSERVATIONS IN SOUTHWEST NEBRASKA AND FAR NORTHEAST COLORADO...

CITY           SKY/WX    TMP DP  RH WIND       PRES   REMARKS
WRAY           FAIR      55  46  72 SW6       29.57R
HOLYOKE        FAIR      59  46  63 NW8       29.57S
IMPERIAL       CLOUDY    61  36  39 W9        29.50S
OGALLALA       CLOUDY    61  43  52 W13G21    29.53R
MCCOOK         CLOUDY    62  52  69 CALM      29.49R
LEXINGTON      MOCLDY    59  55  87 E7        29.49S
$$

...NORTH PLATTE AREA...

CITY           SKY/WX    TMP DP  RH WIND       PRES   REMARKS
$$

...SOME WEATHER OBSERVATIONS FROM AROUND THE REGION...

CITY           SKY/WX    TMP DP  RH WIND       PRES   REMARKS
DENVER         CLOUDY    53  33  46 W9        29.66S
LARAMIE        CLOUDY    41  34  76 W25G33    29.74R
CHEYENNE       MOCLDY    51  32  48 W10       29.67R
SCOTTSBLUFF    CLOUDY    53  44  71 W3        29.60S
RAPID CITY     CLOUDY    53  45  74 SE8       29.60R
PIERRE         PTCLDY    63  46  54 NE17      29.51R
WINNER         FAIR      69  44  40 E14G21    29.48R
SIOUX FALLS    CLOUDY    57  48  72 E17G28    29.58R
OMAHA          CLOUDY    59  53  80 SE13      29.54F
GRAND ISLAND   CLOUDY    59  55  87 E6        29.50F
KANSAS CITY    LGT RAIN  63  55  75 SE16      29.57F
WICHITA        PTCLDY    67  58  72 S23G32    29.46S
HAYS           CLOUDY    57  50  77 E9        29.51R
LIBERAL        MOCLDY    61  43  51 N3        29.53R
GOODLAND       CLOUDY    58  39  49 N17       29.54R
$$



USA.gov is the U.S. government's official web portal to all federal, state and local government web resources and services.